[Iaude] MPEC S183: 2023 SH5 [a=3.44,e=0.63,i=3.4,H=23.7]
    mpec at marsden.cfa.harvard.edu 
    mpec at marsden.cfa.harvard.edu
       
    Sun Sep 24 10:54:17 EDT 2023
    
    
  
M.P.E.C. 2023-S183                           Issued 2023 September 24, 14:52 UT
     The Minor Planet Electronic Circulars contain information on unusual
         minor planets, routine data on comets and natural satellites,
         and occasional editorial announcements.  They are published
    on behalf of Division F of the International Astronomical Union by the
          Minor Planet Center, Smithsonian Astrophysical Observatory,
                          Cambridge, MA 02138, U.S.A.
			  
             Prepared using the Tamkin Foundation Computer Network
                              MPC at CFA.HARVARD.EDU
            URL https://www.minorplanetcenter.net/    ISSN 1523-6714
                                    2023 SH5                                    
Observations:
     K23S05H*1C2023 09 19.28160300 51 28.292+05 24 37.51         21.42GVES183G96
     K23S05H 1C2023 09 19.29200400 51 29.448+05 24 35.89         22.31GVES183G96
     K23S05H 1C2023 09 19.29721800 51 30.038+05 24 35.14         21.94GVES183G96
     K23S05H KC2023 09 19.40743300 51 41.627+05 24 16.74         22.07GVES183V06
     K23S05H KC2023 09 19.41060800 51 41.969+05 24 16.24         22.14GVES183V06
     K23S05H KC2023 09 19.41378600 51 42.300+05 24 15.66         22.04GVES183V06
     K23S05H KC2023 09 19.41696400 51 42.631+05 24 15.12         22.37GVES183V06
     K23S05H KC2023 09 20.26107200 53 21.397+05 21 49.39         22.07GVES183V06
     K23S05H KC2023 09 20.26424800 53 21.732+05 21 49.03         22.39GVES183V06
     K23S05H KC2023 09 20.26742500 53 22.060+05 21 48.35         22.37GVES183V06
     K23S05H KC2023 09 20.27060300 53 22.358+05 21 47.99         21.96GVES183V06
     K23S05H KC2023 09 23.29048400 58 52.18 +05 11 57.8          22.2 VuES183H21
     K23S05H KC2023 09 23.29340700 58 52.46 +05 11 57.0          22.5 VuES183H21
     K23S05H KC2023 09 23.29827600 58 52.89 +05 11 55.8          22.4 VuES183H21
     K23S05H KC2023 09 24.26136201 00 33.17 +05 08 31.0          22.1 VuES183H21
     K23S05H KC2023 09 24.28179301 00 35.07 +05 08 26.7          22.2 VuES183H21
Observer details:
G96 Mt. Lemmon Survey.  Observer J. K. Hogan.  Measurers E. J. Christensen, D.
    Fay, J. B. Fazekas, D. C. Fuls, A. R. Gibbs, A. D. Grauer, H. Groeller, J.
    K. Hogan, R. A. Kowalski, S. M. Larson, G. J. Leonard, D. Rankin, R. L.
    Seaman, A. Serrano, F. C. Shelly, K. W. Wierzchos.  1.5-m reflector + 10K
    CCD.
H21 Astronomical Research Observatory, Westfield.  Observer R. Holmes.
    Measurers T. Linder, R. Holmes, L. Horn.  1.3-m f/4.0 astrograph + CCD,
    0.81-m f/4.0 astrograph + CCD.
V06 Catalina Sky Survey-Kuiper.  Observer K. W. Wierzchos.  Measurers E. J.
    Christensen, D. Fay, J. B. Fazekas, D. C. Fuls, A. R. Gibbs, A. D. Grauer,
    H. Groeller, J. K. Hogan, R. A. Kowalski, S. M. Larson, G. J. Leonard, D.
    Rankin, R. L. Seaman, A. Serrano, F. C. Shelly, K. W. Wierzchos.  1.55-m
    reflector + 1K CCD.
Orbital elements:
2023 SH5                                                 Earth MOID = 0.2628 AU
Epoch 2023 Sept. 13.0 TT = JDT 2460200.5                Bell                    
M   0.70126              (2000.0)            P               Q                  
n   0.15474943     Peri.  170.86303     +0.98551359     +0.16959528             
a   3.4359751      Node   179.37161     -0.15906133     +0.92559964             
e   0.6306496      Incl.    3.35167     -0.05884269     +0.33838255             
P   6.37           H   23.77          G   0.15           U   9                  
Residuals in seconds of arc
230919 G96  0.7-  0.1-    230919 V06  0.1-  0.1+    230923 H21  0.4+  0.1-
230919 G96  0.1+  0.0     230920 V06  0.0   0.3+    230923 H21  0.0   0.3-
230919 G96  0.6+  0.0     230920 V06  0.0   0.5+    230924 H21  0.3-  0.2-
230919 V06  0.0   0.0     230920 V06  0.0   0.3+    230924 H21  0.2-  0.1-
230919 V06  0.0   0.1+    230920 V06  0.5-  0.5+
230919 V06  0.0   0.0     230923 H21  0.4+  0.1+
Ephemeris:
2023 SH5                 a,e,i = 3.44, 0.63, 3                   q = 1.2691
Date    TT    R. A. (2000) Decl.     Delta      r    Elong.  Phase     V
2023 08 25    23 50 27.7 +04 46 27   0.2993  1.2811   151.1    22.4    22.8
...
2023 09 09    00 29 06.4 +05 38 17   0.2795  1.2691   156.7    18.3    22.5
...
2023 09 17    00 46 54.1 +05 30 33   0.2804  1.2733   160.6    15.2    22.4
...
2023 09 23    00 58 21.5 +05 13 15   0.2863  1.2812   163.9    12.5    22.3
2023 09 24    01 00 06.1 +05 09 45   0.2877  1.2829   164.5    12.1    22.3
2023 09 25    01 01 47.8 +05 06 07   0.2892  1.2848   165.1    11.6    22.3
...
2023 10 01    01 10 58.6 +04 42 41   0.3010  1.2980   168.8     8.6    22.3
...
2023 10 09    01 20 43.4 +04 11 40   0.3238  1.3214   173.5     4.9    22.3
...
2023 10 24    01 33 31.6 +03 38 08   0.3900  1.3814   171.0     6.5    22.9
M. P. C. Staff               (C) Copyright 2023 MPC           M.P.E.C. 2023-S183
    
    
More information about the Iaude
mailing list